Temperature
20 19 18 18 18 17 17 17 17 17 17 17 17 17 17 17 17 17 17 17 17 16 16 16 16 16 16 16 16 16 16 16 16 16 17 17 17 16 16 16 16 16 16
20 19 18 17 17 17 17 17 17 17 17 17 17 17 17 17 17 17 17 17 16 16 16 16 16 16 16 16 16 16 16 16 16 17 17 17 17 16 17 16 16 16 16
21 19 18 17 17 17 17 17 17 17 17 17 17 17 17 17 17 17 17 16 16 16 16 16 16 16 16 16 16 15 15 16 16 16 17 18 18 18 17 16 16 16 16
21 20 18 18 17 17 17 17 17 17 17 17 17 17 17 17 17 17 17 16 16 16 16 16 16 16 16 16 16 15 15 15 16 16 16 17 17 18 18 17 16 16 16
21 20 19 18 17 17 17 17 17 17 17 17 17 17 17 17 17 17 17 16 16 16 16 16 16 16 16 15 15 15 15 16 16 16 16 16 16 17 17 18 17 17 16
21 20 19 18 17 17 17 17 17 17 17 17 17 17 17 17 17 17 16 16 16 16 16 16 16 16 15 15 15 15 15 15 15 16 16 16 17 17 17 18 17 17 17
21 20 19 18 18 17 17 17 17 17 17 17 17 17 17 17 17 17 17 17 16 16 16 16 16 16 15 15 15 15 15 15 15 15 16 16 16 16 17 17 18 17 17
21 20 19 18 18 17 17 17 17 17 17 17 17 17 17 17 17 17 17 17 17 16 16 16 16 16 15 15 15 15 15 15 15 15 15 15 16 16 16 17 17 17 17
21 20 19 19 18 17 17 17 17 17 17 17 17 17 17 17 17 17 17 17 16 16 16 16 16 16 15 15 15 15 15 15 15 15 15 15 15 15 16 16 16 17 18
21 20 19 19 18 18 17 17 17 17 17 17 17 17 17 17 17 17 17 16 16 16 16 16 16 16 16 15 15 15 15 15 15 15 15 15 15 15 15 15 15 16 16
21 20 20 19 18 18 17 17 17 17 17 17 17 17 17 17 17 17 17 17 16 16 16 16 16 16 16 15 15 15 15 15 15 15 15 15 15 15 15 15 15 15 15
21 20 20 19 18 18 18 17 17 17 17 17 17 17 17 17 17 17 17 17 16 16 16 16 16 16 15 15 15 15 15 15 15 15 15 15 15 14 15 15 15 15 15
20 20 19 19 18 18 18 17 17 17 17 17 17 17 17 17 17 17 17 17 16 16 16 16 16 16 16 16 15 15 15 15 15 15 15 15 14 14 14 14 14 14 14
20 19 19 18 18 18 17 17 17 17 17 17 17 17 17 17 17 17 17 17 16 16 16 16 16 16 16 15 15 15 15 15 15 15 15 15 14 14 14 14 14 14 14
19 19 18 18 17 17 17 17 17 17 17 17 17 17 17 17 17 17 17 17 16 16 16 16 16 16 16 15 15 15 15 15 15 15 15 15 14 14 14 14 14 14 14
19 18 18 17 17 17 17 17 17 17 17 17 17 17 17 17 17 17 17 17 17 16 16 16 16 16 16 16 16 15 15 15 15 15 15 15 14 14 14 14 14 14 14
18 18 18 17 17 17 17 17 17 17 17 17 17 17 17 17 17 17 17 16 16 16 16 16 16 16 15 16 16 15 15 15 15 15 15 14 14 14 14 14 14 14 14
17 17 17 17 17 17 17 17 17 17 16 16 16 16 16 16 17 16 16 16 16 16 16 16 15 15 15 15 15 15 15 15 14 14 14 14 14 14 14 14 13 13 13
16 16 16 16 16 16 17 16 16 16 16 16 16 16 16 16 16 16 16 16 16 15 15 15 15 15 15 15 15 15 14 14 14 14 14 14 14 14 13 13 13 13 13
15 15 15 16 16 16 16 16 16 16 16 16 15 16 16 16 16 16 15 15 15 15 15 15 14 14 14 14 14 14 14 14 14 13 13 13 13 13 13 13 12 12 12
14 15 15 15 15 15 15 15 15 15 15 15 15 15 15 15 15 15 15 15 14 14 14 14 14 14 14 14 14 13 13 13 13 13 13 12 13 12 12 12 12 12 12
13 14 14 14 14 14 14 14 14 14 14 14 14 14 14 14 14 14 14 14 14 14 13 13 13 13 13 13 13 13 12 12 12 12 12 11 12 12 11 11 11 11 11
12 12 13 13 13 13 14 13 13 13 13 13 13 13 13 13 13 13 13 13 13 13 13 13 12 12 12 12 12 12 12 11 11 11 11 11 11 11 11 11 10 10 10
12 12 12 12 12 12 13 12 12 13 13 13 12 12 12 12 12 12 12 12 12 12 12 12 12 11 11 11 11 11 10 10 10 10 10 10 10 10 10 10 10 10 9
11 11 11 11 11 11 12 12 12 12 12 12 12 12 12 11 11 11 11 11 11 11 11 11 11 10 10 10 10 10 10 10 10 10 10 10 10 10 10 10 10 9 9
10 11 11 11 11 11 11 11 11 11 11 11 11 11 11 11 11 11 11 10 10 10 10 10 10 9 9 9 9 9 9 9 9 9 9 10 10 10 10 9 9 9 9
Wind_Speed
9 10 11 11 12 12 13 14 15 14 13 11 11 10 10 9 8 8 9 9 8 8 6 5 5 5 5 4 5 4 5 4 3 3 4 4 4 3 2 2 2 3 3
9 10 11 11 12 13 13 15 17 16 15 12 11 10 10 8 8 7 8 9 9 8 7 6 6 5 4 5 5 4 4 3 4 4 4 4 5 4 3 3 4 3 4
10 11 12 12 12 13 14 14 17 17 16 14 11 10 9 8 7 8 8 8 9 9 7 7 6 5 6 5 6 6 6 4 4 3 3 3 2 4 4 3 3 3 2
9 10 11 12 12 13 13 14 15 16 16 15 13 15 12 10 9 8 8 8 9 9 9 8 7 6 5 4 6 6 5 5 5 4 3 3 3 2 3 5 5 4 4
8 9 10 11 12 12 12 12 14 15 15 15 15 14 12 9 8 8 9 9 8 9 9 8 7 6 5 5 4 5 6 5 5 4 4 4 3 5 4 3 4 4 4
8 8 10 11 11 12 12 12 14 14 15 15 15 14 13 12 11 10 10 9 8 8 9 9 8 7 6 6 6 6 7 5 4 4 4 4 4 5 5 4 5 4 4
8 9 10 11 12 13 13 13 14 13 14 15 14 13 13 12 12 11 11 9 8 8 9 9 8 7 7 6 6 6 6 6 5 6 5 5 5 4 5 5 4 4 4
8 9 10 11 12 13 13 13 15 14 15 14 14 12 12 10 10 11 10 10 8 8 9 10 10 9 8 8 7 7 6 5 6 6 5 5 5 4 5 5 5 5 6
8 9 10 11 12 13 13 14 14 14 14 14 13 12 12 12 11 11 10 9 8 8 10 10 10 9 9 9 8 7 7 6 7 7 7 7 5 5 5 5 6 7 7
9 9 10 11 11 12 12 13 13 13 14 14 13 11 12 12 11 11 11 10 10 9 10 11 10 10 10 10 9 8 8 8 7 6 6 6 6 5 6 6 6 6 7
9 9 9 10 11 11 12 13 13 13 13 13 12 12 12 12 12 11 12 11 10 10 11 11 11 10 11 10 10 10 9 10 9 9 9 9 8 6 6 6 6 7 7
8 9 10 11 11 12 11 12 12 12 12 12 12 12 12 12 12 12 12 11 11 11 11 11 11 11 11 11 11 11 11 11 11 10 10 10 8 9 8 7 8 7 7
9 9 10 10 11 11 11 11 11 11 11 12 12 12 12 12 11 11 11 11 11 11 11 11 11 11 11 11 11 12 11 11 11 11 11 11 10 10 9 9 9 8 8
9 10 10 10 9 10 10 10 10 11 11 12 12 12 11 11 11 10 10 11 11 11 11 11 11 11 11 11 11 11 11 12 12 11 11 12 12 12 11 10 10 9 9
9 10 10 9 9 9 9 10 10 11 11 11 11 10 10 10 10 10 9 10 10 11 11 11 11 11 10 10 11 11 11 11 11 11 11 12 11 10 10 10 10 10 10
9 9 9 9 9 9 9 9 9 9 9 10 10 9 9 9 9 9 9 9 9 10 10 11 11 11 9 7 8 10 11 10 11 11 11 11 10 10 11 11 10 10 11
8 8 8 8 8 8 8 9 9 8 9 9 8 8 8 8 8 8 8 8 8 8 8 8 9 9 7 6 8 11 10 10 10 10 10 10 9 10 11 12 14 14 14
6 6 7 7 7 7 8 8 8 8 8 8 7 7 7 8 7 7 7 7 6 6 6 6 6 6 4 4 7 8 10 10 10 10 10 10 9 8 9 11 12 13 13
6 5 6 6 7 7 8 9 8 8 7 6 6 6 6 6 6 6 5 5 4 4 4 4 4 4 2 3 4 6 7 8 9 9 8 9 9 5 5 9 11 12 11
7 7 7 8 8 8 9 9 8 7 6 6 5 5 5 6 5 4 4 3 4 4 3 3 2 1 0 2 2 4 5 6 6 6 5 4 5 4 5 8 10 11 10
10 9 9 9 9 9 10 11 10 8 7 7 7 6 6 6 5 5 4 3 3 3 3 2 2 2 3 4 3 1 3 4 4 4 4 2 2 4 5 7 8 8 8
12 12 12 11 10 10 11 12 11 9 9 10 10 9 8 7 6 6 5 4 3 4 3 3 3 3 4 5 4 2 2 5 3 3 3 1 0 3 5 6 5 5 6
13 13 13 13 12 12 12 13 11 10 11 11 11 10 10 9 8 7 6 5 4 3 3 3 2 3 3 4 4 2 1 3 3 2 2 1 2 4 5 5 6 6 6
13 13 14 15 14 13 13 12 11 10 11 11 10 9 9 9 9 7 6 6 5 4 3 3 3 3 3 4 3 2 1 1 2 2 2 5 6 5 4 3 5 5 4
12 13 14 14 14 13 13 12 11 10 11 10 9 8 9 8 8 9 8 7 8 7 5 5 4 4 4 6 7 5 4 4 4 4 4 3 2 3 3 4 4 4 5
13 13 14 14 14 13 13 11 10 10 9 9 8 7 7 6 6 7 8 12 9 10 11 10 8 7 8 6 6 6 5 5 5 5 4 4 4 5 5 5 5 5 5
Wind_Direction
196 188 188 189 185 185 183 181 182 180 178 176 176 174 175 174 174 176 174 179 182 181 189 189 184 203 196 194 187 188 181 193 188 193 184 182 185 183 187 209 206 178 184
194 190 188 187 188 187 186 185 185 183 182 181 178 177 173 174 173 175 173 183 186 185 186 191 193 195 191 194 197 208 214 188 197 225 206 193 181 197 190 197 206 206 193
201 196 194 192 190 189 188 188 185 182 183 178 171 167 163 167 171 175 178 184 186 190 190 192 202 195 208 195 201 203 214 206 195 229 249 236 211 167 173 194 202 207 204
203 197 192 190 190 191 190 187 182 182 181 177 177 175 177 177 180 180 178 180 186 189 191 194 198 202 208 194 205 200 209 216 205 192 244 295 347 257 182 187 182 195 212
197 194 190 189 189 186 184 182 178 180 179 181 183 182 182 179 174 176 176 184 185 193 195 195 195 198 204 202 211 193 217 217 228 213 207 213 223 250 258 213 189 197 196
191 188 185 183 184 182 181 178 178 180 179 181 184 186 182 175 174 179 179 187 188 193 196 197 198 201 199 196 204 207 210 229 235 243 231 229 233 233 241 239 224 216 198
183 180 179 179 180 179 179 179 178 180 179 180 183 186 184 179 180 184 187 191 194 197 194 199 200 202 201 202 206 210 219 216 218 231 236 242 248 258 256 258 245 236 214
176 177 177 179 179 179 179 179 181 181 179 181 184 187 185 186 188 193 193 196 202 203 193 200 202 205 205 206 205 215 213 214 220 228 238 243 239 244 247 252 253 241 230
172 174 175 177 176 178 180 178 179 179 181 184 184 186 190 194 194 193 200 202 205 202 197 202 204 205 207 210 210 219 218 215 222 221 215 231 228 234 242 246 252 260 256
168 172 174 174 173 175 176 177 180 180 182 184 187 190 194 198 197 197 202 206 203 203 200 204 206 208 209 210 215 217 216 219 224 233 232 232 234 229 235 238 242 253 266
165 167 171 170 168 169 171 177 179 182 186 188 190 190 194 197 197 201 206 207 203 202 204 206 207 210 213 213 215 222 214 220 222 222 221 225 240 236 232 232 237 241 247
163 165 166 166 169 171 172 175 175 179 184 184 185 189 192 195 198 202 206 206 204 204 206 208 211 214 216 215 218 223 220 222 225 225 225 226 223 226 240 239 238 240 244
165 165 165 167 172 173 172 171 173 176 178 178 182 185 189 193 199 202 204 204 204 206 207 208 212 216 218 219 222 225 226 227 229 228 227 229 229 228 230 233 238 236 232
168 167 165 166 170 171 171 172 175 176 177 176 181 184 190 193 195 198 200 202 204 207 207 210 215 219 222 224 226 226 230 231 232 232 231 232 230 231 233 232 235 239 241
165 167 165 162 164 165 169 173 175 177 177 177 181 185 187 190 193 196 199 201 206 210 211 215 219 223 225 227 227 229 230 230 232 233 234 236 237 242 240 243 235 232 236
164 164 163 161 164 166 169 170 171 173 174 178 182 184 184 186 190 192 195 199 206 213 214 218 221 223 229 212 213 231 237 233 235 236 235 237 230 231 231 248 257 257 245
160 159 162 164 167 169 171 171 170 168 170 175 179 179 182 184 189 192 192 197 203 208 211 217 222 226 228 191 205 224 241 243 240 238 237 239 232 220 231 227 231 242 247
147 150 155 157 161 161 160 161 160 163 166 169 172 176 179 179 179 183 187 191 194 198 204 214 222 227 224 187 212 222 233 243 243 241 239 240 242 236 238 242 239 240 237
120 122 128 133 137 142 147 146 147 148 149 151 155 163 170 167 167 173 174 176 179 191 200 206 216 221 216 166 201 222 234 240 244 246 246 246 244 238 241 248 250 251 250
97 99 104 104 110 118 126 128 126 123 122 120 120 121 130 136 140 142 144 148 161 172 179 167 172 190 197 106 180 228 242 248 248 244 240 239 251 248 231 247 253 255 257
95 92 91 89 89 98 107 107 104 101 99 101 102 103 107 109 108 108 110 116 121 124 128 128 117 87 55 83 83 281 266 268 265 264 258 244 211 244 245 252 258 266 276
96 94 90 85 81 87 96 95 90 91 94 94 91 88 86 89 96 98 96 97 107 119 121 115 102 92 81 63 70 58 318 315 291 288 298 350 140 252 249 248 257 276 277
95 93 92 86 79 78 84 87 85 88 90 87 83 82 79 74 74 82 88 92 89 86 88 90 84 75 73 90 97 112 213 285 291 312 9 356 256 254 239 218 233 248 255
94 93 90 86 79 76 76 79 83 85 87 85 82 81 79 76 70 61 61 62 58 59 60 55 52 57 58 35 22 5 1 214 258 289 213 206 222 242 260 236 227 243 262
91 90 88 85 82 77 74 72 75 81 83 81 79 79 78 76 73 67 51 55 53 43 35 40 41 31 37 28 9 356 354 347 350 321 289 280 271 260 257 261 264 268 265
95 91 88 86 83 79 73 68 70 76 80 80 76 75 76 73 75 81 81 64 70 76 67 51 40 58 55 35 19 14 359 336 320 301 292 295 295 296 297 295 287 279 279
Height
1492 1494 1496 1498 1500 1502 1505 1508 1512 1517 1522 1527 1532 1536 1540 1544 1548 1551 1554 1556 1559 1560 1562 1565 1565 1567 1568 1569 1570 1572 1572 1574 1574 1576 1577 1578 1578 1579 1580 1580 1581 1581 1582
1490 1492 1493 1495 1497 1499 1502 1505 1509 1514 1520 1524 1530 1534 1539 1543 1546 1550 1552 1555 1557 1559 1562 1563 1564 1566 1567 1568 1569 1570 1572 1573 1574 1575 1576 1577 1578 1578 1579 1579 1580 1580 1581
1487 1489 1490 1492 1495 1497 1500 1503 1507 1512 1517 1522 1528 1532 1536 1541 1544 1548 1551 1553 1556 1558 1560 1562 1564 1564 1566 1567 1568 1569 1570 1572 1573 1574 1575 1575 1575 1576 1578 1578 1579 1579 1580
1484 1486 1488 1490 1492 1495 1498 1501 1504 1509 1515 1520 1525 1529 1533 1538 1542 1545 1549 1552 1554 1557 1559 1560 1562 1563 1565 1565 1567 1568 1569 1570 1572 1572 1573 1574 1574 1575 1576 1577 1577 1578 1578
1482 1484 1486 1488 1490 1493 1496 1499 1502 1507 1512 1517 1522 1527 1531 1536 1540 1544 1547 1550 1553 1555 1557 1559 1560 1561 1563 1564 1565 1566 1567 1569 1570 1571 1572 1573 1573 1574 1575 1575 1577 1577 1578
1480 1482 1484 1486 1489 1492 1494 1497 1501 1505 1510 1515 1520 1525 1529 1533 1537 1541 1544 1548 1551 1553 1555 1557 1558 1560 1561 1562 1563 1564 1565 1567 1568 1569 1570 1571 1572 1573 1573 1574 1575 1575 1576
1478 1480 1482 1484 1487 1490 1492 1495 1499 1503 1508 1513 1518 1523 1527 1531 1535 1539 1542 1546 1549 1551 1552 1555 1556 1558 1559 1560 1561 1562 1564 1565 1565 1566 1568 1569 1570 1571 1572 1572 1573 1574 1574
1477 1479 1481 1483 1485 1488 1490 1493 1497 1501 1506 1511 1516 1521 1525 1529 1533 1537 1540 1543 1546 1548 1550 1552 1554 1556 1557 1558 1559 1561 1562 1562 1563 1565 1565 1567 1568 1569 1570 1571 1571 1572 1572
1476 1478 1480 1482 1485 1487 1489 1493 1496 1500 1505 1509 1514 1518 1523 1527 1531 1534 1537 1541 1543 1546 1548 1550 1552 1553 1555 1556 1557 1559 1559 1560 1561 1562 1563 1564 1566 1566 1567 1568 1569 1570 1569
1475 1477 1479 1482 1485 1487 1489 1493 1496 1500 1504 1508 1512 1516 1520 1524 1528 1532 1535 1538 1540 1543 1545 1547 1549 1551 1552 1553 1554 1556 1556 1557 1558 1559 1560 1561 1563 1564 1564 1565 1566 1567 1568
1474 1476 1479 1481 1484 1487 1490 1492 1496 1499 1503 1507 1510 1514 1518 1522 1525 1528 1532 1534 1537 1539 1542 1544 1546 1548 1549 1551 1552 1553 1554 1555 1556 1556 1557 1558 1559 1561 1562 1562 1563 1564 1565
1473 1476 1478 1481 1483 1486 1489 1492 1495 1498 1502 1505 1509 1511 1515 1519 1522 1525 1529 1531 1534 1536 1538 1541 1543 1545 1546 1548 1549 1550 1551 1552 1553 1553 1554 1555 1556 1556 1558 1559 1560 1560 1561
1473 1475 1478 1480 1483 1485 1488 1491 1494 1497 1501 1504 1507 1510 1513 1516 1519 1522 1525 1528 1531 1533 1535 1538 1540 1541 1543 1544 1545 1547 1548 1549 1550 1550 1551 1551 1552 1552 1554 1554 1556 1556 1557
1472 1475 1477 1479 1482 1484 1487 1490 1493 1496 1499 1502 1505 1508 1511 1514 1517 1520 1522 1525 1527 1530 1532 1534 1536 1538 1539 1541 1542 1543 1544 1545 1546 1546 1547 1547 1548 1548 1549 1550 1550 1551 1552
1472 1474 1476 1478 1481 1483 1486 1489 1492 1495 1498 1501 1503 1506 1509 1512 1514 1517 1519 1522 1524 1526 1528 1530 1532 1534 1535 1537 1538 1539 1540 1541 1541 1542 1542 1543 1543 1544 1545 1546 1547 1547 1547
1471 1473 1475 1478 1480 1482 1484 1487 1490 1493 1496 1499 1502 1504 1507 1509 1512 1514 1516 1518 1520 1522 1524 1526 1528 1529 1531 1532 1533 1535 1536 1536 1536 1537 1537 1538 1538 1538 1539 1540 1540 1541 1542
1471 1472 1474 1476 1478 1481 1483 1486 1489 1492 1495 1497 1500 1502 1505 1507 1509 1511 1513 1515 1517 1519 1520 1522 1524 1525 1526 1527 1528 1529 1530 1531 1531 1532 1532 1533 1533 1533 1533 1533 1534 1534 1535
1470 1472 1474 1476 1478 1480 1482 1485 1488 1491 1494 1496 1498 1500 1503 1505 1506 1508 1510 1512 1513 1515 1516 1518 1520 1521 1521 1522 1523 1524 1525 1525 1526 1526 1527 1527 1527 1528 1528 1528 1528 1528 1528
1470 1472 1474 1476 1478 1480 1482 1484 1487 1490 1492 1494 1496 1498 1500 1502 1504 1505 1507 1508 1510 1511 1513 1514 1515 1516 1517 1518 1519 1519 1520 1520 1520 1521 1521 1521 1521 1521 1522 1522 1522 1522 1522
1471 1472 1474 1476 1478 1480 1482 1484 1487 1489 1491 1493 1495 1497 1499 1500 1502 1503 1505 1506 1507 1508 1510 1511 1512 1513 1513 1514 1514 1515 1515 1515 1516 1516 1516 1515 1516 1515 1515 1516 1516 1516 1516
1472 1473 1475 1477 1479 1481 1482 1484 1487 1489 1491 1493 1495 1496 1498 1499 1501 1502 1503 1504 1506 1507 1507 1508 1509 1510 1510 1510 1511 1511 1511 1511 1511 1511 1511 1511 1510 1510 1510 1510 1510 1510 1510
1474 1475 1477 1478 1480 1482 1484 1485 1487 1490 1492 1494 1495 1497 1498 1499 1500 1501 1502 1504 1505 1506 1506 1507 1508 1508 1508 1508 1508 1508 1508 1508 1508 1507 1507 1506 1505 1505 1505 1505 1504 1504 1504
1477 1479 1480 1481 1483 1484 1486 1487 1489 1492 1494 1495 1496 1498 1499 1500 1501 1502 1503 1504 1504 1506 1506 1507 1507 1508 1507 1507 1506 1506 1505 1505 1504 1504 1503 1502 1501 1501 1500 1500 1500 1499 1499
1480 1482 1483 1484 1486 1487 1489 1490 1492 1494 1495 1497 1498 1499 1501 1501 1502 1503 1504 1504 1505 1506 1506 1506 1507 1507 1506 1506 1505 1504 1504 1503 1503 1502 1500 1499 1499 1498 1497 1496 1496 1495 1495
1484 1486 1487 1488 1489 1491 1492 1494 1495 1497 1498 1499 1500 1502 1503 1503 1503 1504 1504 1504 1504 1505 1506 1506 1506 1505 1505 1504 1503 1502 1501 1501 1500 1499 1499 1498 1498 1496 1495 1495 1494 1493 1492
1488 1490 1491 1492 1494 1495 1496 1498 1499 1500 1500 1502 1503 1504 1505 1505 1506 1506 1506 1505 1505 1505 1505 1505 1505 1504 1503 1502 1501 1501 1500 1499 1498 1497 1497 1497 1495 1495 1494 1492 1491 1490 1488